Le nostre stazioni meteo in Italia

Pubblicità
Il mio iltempo24.it
Treviso/Istrana, Italia (16098): Temperatura & dewpoint: 11.01.2020 20:00:00 - 17.01.2020 20:00:00 (CET)Treviso/Istrana, Italia (16098): velocità del vento: 11.01.2020 20:00:00 - 17.01.2020 20:00:00 (CET)Treviso/Istrana, Italia (16098): direzione del vento: 11.01.2020 20:00:00 - 17.01.2020 20:00:00 (CET)Treviso/Istrana, Italia (16098): reduced air pressure: 11.01.2020 20:00:00 - 17.01.2020 20:00:00 (CET)Treviso/Istrana, Italia (16098): visibility: 11.01.2020 20:00:00 - 17.01.2020 20:00:00 (CET)
Data & Tempo tt [°C] td [°C] ff [km/h] ff [kn] dd ppp [hPa] vv [km]
17.01.2020 20:00:00 3,8 3,7 0 0 N 1023,6 12
17.01.2020 19:00:00 5,6 4,9 0 0 N 1023,6 15
17.01.2020 18:00:00 7,2 4,9 0 0 N 1023,5 15
17.01.2020 17:00:00 11,4 5,1 0 0 N 1023,3 15
17.01.2020 16:00:00 12,4 4,6 0 0 N 1023,1 15
17.01.2020 15:00:00 13,8 5,2 0 0 N 1023,1 15
17.01.2020 14:00:00 13,0 2,5 0 0 N 1023,6 25
17.01.2020 13:00:00 11,0 3,1 0 0 N 1024,4 25
17.01.2020 12:00:00 9,6 3,4 0 0 N 1025,1 35
17.01.2020 11:00:00 7,8 4,0 0 0 N 1025,5 35
17.01.2020 10:00:00 6,4 3,2 0 0 N 1025,5 35
17.01.2020 09:00:00 5,6 1,1 0 0 N 1025,6 35
17.01.2020 08:00:00 4,6 0,7 5 3 O 1025,2 20
17.01.2020 07:00:00 3,8 1,0 11 6 NO 1026,0 8
17.01.2020 06:00:00 3,0 0,1 9 5 NO 1026,3 8
17.01.2020 05:00:00 1,0 -0,5 8 4 ONO 1027,3 8
17.01.2020 04:00:00 1,0 0,3 0 0 N 1027,3 7
17.01.2020 03:00:00 0,0 -0,9 8 4 OSO 1027,4 7
17.01.2020 02:00:00 -0,4 -0,7 4 2 SSO 1027,5 7
17.01.2020 01:00:00 0,0 -0,3 4 2 O 1028,2 7
17.01.2020 00:00:00 5,4 4,4 4 2 SO 1028,3 6
16.01.2020 23:00:00 2,6 1,4 9 5 OSO 1028,5 6
16.01.2020 22:00:00 2,6 1,3 11 6 SO 1029,2 6
16.01.2020 21:00:00 3,0 2,3 9 5 OSO 1029,4 6
16.01.2020 20:00:00 4,4 3,4 9 5 O 1029,8 4,5
16.01.2020 19:00:00 5,2 3,5 5 3 O 1029,9 4,5
16.01.2020 18:00:00 6,2 3,5 5 3 O 1029,9 4,5
16.01.2020 17:00:00 9,2 5,2 4 2 OSO 1029,9 4,5
16.01.2020 16:00:00 10,4 6,0 4 2 OSO 1030,0 5
16.01.2020 15:00:00 11,0 5,5 2 1 O 1030,2 7
16.01.2020 14:00:00 10,8 6,0 2 1 SSE 1030,7 7
16.01.2020 13:00:00 9,4 5,2 2 1 E 1031,3 8
16.01.2020 12:00:00 8,2 3,8 4 2 NNE 1032,1 9
16.01.2020 11:00:00 5,8 3,5 5 3 ONO 1032,5 9
16.01.2020 10:00:00 2,4 1,4 4 2 ONO 1032,2 8
16.01.2020 09:00:00 0,4 -0,8 4 2 NNO 1032,1 5
16.01.2020 08:00:00 -0,6 -1,6 0 0 N 1031,4 3,0
16.01.2020 07:00:00 -0,4 -1,4 5 3 NNE 1030,9 3,0
16.01.2020 06:00:00 -0,6 -1,3 5 3 NE 1030,7 2,5
16.01.2020 05:00:00 -0,2 -0,6 0 0 N 1030,6 1,8
16.01.2020 04:00:00 0,2 -0,1 0 0 N 1030,5 1,0
16.01.2020 03:00:00 -0,2 -0,5 0 0 N 1029,6 1,0
16.01.2020 02:00:00 0,0 -0,5 0 0 N 1029,7 1,0
16.01.2020 01:00:00 0,0 -0,3 4 2 NNO 1029,7 1,0
16.01.2020 00:00:00 0,0 -0,3 0 0 N 1029,5 1,0
15.01.2020 23:00:00 0,4 0,1 0 0 N 1029,5 1,5
15.01.2020 22:00:00 1,0 0,7 0 0 N 1029,5 1,5
15.01.2020 21:00:00 2,0 1,7 0 0 N 1029,6 2,0
15.01.2020 20:00:00 2,6 2,0 4 2 O 1029,2 2,5
15.01.2020 19:00:00 3,0 2,3 0 0 N 1029,1 2,5
15.01.2020 18:00:00 4,4 3,4 0 0 N 1028,9 2,8
15.01.2020 17:00:00 6,4 3,9 0 0 N 1028,5 4,5
15.01.2020 16:00:00 7,6 3,5 0 0 N 1028,5 6
15.01.2020 15:00:00 7,6 2,9 0 0 N 1028,5 7
15.01.2020 14:00:00 7,6 2,9 4 2 S 1028,6 8
15.01.2020 13:00:00 7,4 2,9 0 0 N 1029,1 9
15.01.2020 12:00:00 7,0 2,9 0 0 N 1029,2 9
15.01.2020 11:00:00 5,0 2,2 4 2 OSO 1029,6 8
15.01.2020 10:00:00 2,0 0,8 0 0 N 1029,3 6
15.01.2020 09:00:00 0,0 -1,0 4 2 NO 1029,1 4,0
15.01.2020 08:00:00 -0,8 -1,5 0 0 N 1028,3 3,0
15.01.2020 07:00:00 -1,0 -1,7 5 3 NO 1028,3 3,0
15.01.2020 06:00:00 -1,0 -1,7 4 2 N 1028,3 2,0
15.01.2020 05:00:00 -1,0 -1,5 4 2 N 1028,3 2,0
15.01.2020 04:00:00 -1,0 -1,5 4 2 NNO 1028,3 2,5
15.01.2020 03:00:00 - - - - - - -
15.01.2020 02:00:00 -0,6 -1,3 9 5 NNO 1028,3 2,5
15.01.2020 01:00:00 -0,6 -1,3 4 2 ONO 1028,3 2,0
15.01.2020 00:00:00 -0,4 -1,4 0 0 N 1028,2 2,0
14.01.2020 23:00:00 0,0 -0,5 0 0 N 1028,2 3,0
14.01.2020 22:00:00 0,2 -0,4 0 0 N 1027,6 3,0
14.01.2020 21:00:00 0,8 0,1 0 0 N 1027,6 3,0
14.01.2020 20:00:00 2,0 1,7 4 2 N 1028,1 3,0
14.01.2020 19:00:00 2,0 1,3 0 0 N 1027,8 3,0
14.01.2020 18:00:00 3,4 2,2 0 0 N 1027,3 3,0
14.01.2020 17:00:00 5,0 1,8 2 1 SSO 1026,7 4,0
14.01.2020 16:00:00 6,0 2,8 2 1 SSO 1026,6 5
14.01.2020 15:00:00 6,0 2,1 4 2 S 1026,0 7
14.01.2020 14:00:00 6,0 2,5 0 0 N 1026,0 8
14.01.2020 13:00:00 6,0 2,8 4 2 S 1026,1 8
14.01.2020 12:00:00 7,0 1,9 0 0 N 1026,7 8
14.01.2020 11:00:00 4,0 2,5 0 0 N 1026,7 7
14.01.2020 10:00:00 0,2 -1,0 0 0 N 1026,3 7
14.01.2020 09:00:00 -2,4 -3,1 4 2 OSO 1026,2 7
14.01.2020 08:00:00 -2,4 -3,2 0 0 N 1025,8 6
14.01.2020 07:00:00 -2,4 -3,1 0 0 N 1025,6 2,4
14.01.2020 06:00:00 -2,8 -3,5 0 0 N 1025,2 2,4
14.01.2020 05:00:00 -2,0 -2,7 0 0 N 1025,1 2,4
14.01.2020 04:00:00 -1,6 -2,3 0 0 N 1025,1 2,0
14.01.2020 03:00:00 -1,0 -1,4 0 0 N 1025,1 2,7
14.01.2020 02:00:00 -0,6 -1,0 0 0 N 1025,0 2,7
14.01.2020 01:00:00 -0,6 -0,9 0 0 N 1024,9 2,7
14.01.2020 00:00:00 -0,8 -0,8 0 0 N 1025,0 2,0
13.01.2020 23:00:00 0,2 0,2 0 0 N 1025,1 6
13.01.2020 22:00:00 2,8 2,4 8 4 ONO 1025,1 6
13.01.2020 21:00:00 3,2 2,8 8 4 ONO 1025,3 6
13.01.2020 20:00:00 3,2 2,8 0 0 N 1024,7 8
13.01.2020 19:00:00 5,0 3,8 0 0 N 1024,8 8
13.01.2020 18:00:00 6,0 3,3 4 2 S 1024,2 10
13.01.2020 17:00:00 8,0 3,3 4 2 SE 1024,7 10
13.01.2020 16:00:00 10,0 3,3 4 2 SE 1024,9 15
13.01.2020 15:00:00 10,0 3,1 5 3 NNE 1025,2 15
13.01.2020 14:00:00 9,6 2,2 4 2 ENE 1026,2 20
13.01.2020 13:00:00 8,4 2,0 11 6 NNE 1027,0 20
13.01.2020 12:00:00 7,6 0,3 11 6 NE 1027,6 30
13.01.2020 11:00:00 7,0 0,4 13 7 NNE 1027,9 30
13.01.2020 10:00:00 5,4 2,6 0 0 N 1027,3 30
13.01.2020 09:00:00 1,4 -0,7 8 4 NNO 1027,3 30
13.01.2020 08:00:00 1,0 -1,2 5 3 NNO 1027,4 15
13.01.2020 07:00:00 1,2 -1,4 5 3 NNO 1027,3 12
13.01.2020 06:00:00 1,0 -1,1 0 0 N 1026,7 10
13.01.2020 05:00:00 1,0 -0,5 0 0 N 1026,9 10
13.01.2020 04:00:00 0,0 -0,3 0 0 N 1027,3 10
13.01.2020 03:00:00 0,0 -0,3 0 0 N 1027,3 10
13.01.2020 02:00:00 0,0 -0,3 0 0 N 1026,8 10
13.01.2020 01:00:00 0,0 -0,9 0 0 N 1026,8 10
13.01.2020 00:00:00 1,0 -1,2 0 0 N 1026,9 10
12.01.2020 23:00:00 2,2 -0,5 0 0 N 1026,6 15
12.01.2020 22:00:00 3,8 0,3 0 0 N 1027,1 15
12.01.2020 21:00:00 3,2 0,9 8 4 NNO 1027,3 20
12.01.2020 20:00:00 2,2 2,2 0 0 N 1027,1 10
12.01.2020 19:00:00 3,8 3,8 9 5 NO 1027,2 10
12.01.2020 18:00:00 4,4 4,2 0 0 N 1027,2 12
12.01.2020 17:00:00 7,6 4,9 0 0 N 1026,9 12
12.01.2020 16:00:00 10,2 5,4 0 0 N 1026,9 15
12.01.2020 15:00:00 10,2 4,6 0 0 N 1027,1 20
12.01.2020 14:00:00 11,0 4,7 0 0 N 1027,4 20
12.01.2020 13:00:00 10,2 3,7 0 0 N 1028,2 25
12.01.2020 12:00:00 10,0 4,8 0 0 N 1028,9 25
12.01.2020 11:00:00 8,8 3,8 0 0 N 1029,9 25
12.01.2020 10:00:00 5,0 3,3 0 0 N 1030,0 25
12.01.2020 09:00:00 2,4 1,4 0 0 N 1030,7 25
12.01.2020 08:00:00 1,8 1,1 4 2 NNO 1029,9 18
12.01.2020 07:00:00 2,0 1,4 4 2 ONO 1030,1 25
12.01.2020 06:00:00 2,2 1,9 4 2 NNO 1030,3 25
12.01.2020 05:00:00 2,4 1,8 4 2 ONO 1030,3 25
12.01.2020 04:00:00 3,2 2,3 8 4 N 1030,3 25
12.01.2020 03:00:00 4,2 2,6 8 4 N 1030,2 25
12.01.2020 02:00:00 5,2 3,2 13 7 NNE 1030,3 25
12.01.2020 01:00:00 6,0 3,5 15 8 NNE 1030,2 25
12.01.2020 00:00:00 6,2 3,9 18 10 NNE 1030,2 25
11.01.2020 23:00:00 6,8 3,4 18 10 NNE 1030,2 23
11.01.2020 22:00:00 6,8 3,0 15 8 NNE 1029,8 20
11.01.2020 21:00:00 5,4 3,1 11 6 NNE 1029,3 18
11.01.2020 20:00:00 5,2 2,0 0 0 N 1028,7 12

tt = Temperatura
td = dewpoint
ff = velocità del vento
dd = direzione del vento
ppp = reduced air pressure
vv = visibility

Stazioni seguenti

WeatherPro
AMSI
MeteoEarth